(2020 BY11) |
Classification: Apollo [NEO] SPK-ID: 3989268 |
[ hide orbit diagram ]
For accurate long-term ephemerides, please instead use our Horizons system.This orbit viewer was implemented using two-body methods, and hence should not be used for determining accurate long-term trajectories (over several years or decades) or planetary encounter circumstances.
Orbital Elements at Epoch 2458879.5 (2020-Jan-31.0) TDB
Reference: JPL 4 (heliocentric ecliptic J2000)
Element | Value | Uncertainty (1-sigma) | Units |
e | .5658004487377014 | 0.0010042 | |
a | 1.935868569687345 | 0.0040454 | au |
q | .8405532642610332 | 0.00018754 | au |
i | 1.78953446826223 | 0.0026452 | deg |
node | 306.7959662424302 | 0.0011885 | deg |
peri | 122.7000631372331 | 0.0056937 | deg |
M | 16.38513718454 | 0.056876 | deg |
tp | 2458834.722503239861 (2019-Dec-17.22250324) | 0.015076 | TDB |
period | 983.8122593724623 2.69 | 3.0838 0.008443 | d yr |
n | .3659234742913559 | 0.001147 | deg/d |
Q | 3.031183875113658 | 0.0063342 | au |
|
| | Orbit Determination Parameters
Additional Information
|
[ show covariance matrix ]
Physical Parameter Table
Parameter |
Symbol |
Value |
Units |
Sigma |
Reference |
Notes |
absolute magnitude |
H |
27.931 |
|
.5611 |
4 |
autocmod 2.8 |
|
[ hide close-approach data ]
Close-Approach Data ...sorted by Date/Time (TDB)
|
Date/Time (TDB) |
Time Uncertainty (days_HH:MM) |
Body |
Nominal Distance (au) |
Minimum Distance (au) |
Maximum Distance (au) |
V-relative (km/s) |
V-infinity (km/s) |
JD (TDB) |
Time Uncertainty (minutes) |
Semi-major axis (km) |
Semi-minor axis (km) |
range-LOV angle (deg) |
N-sigma |
BP |
Orbit Ref. |
Reference |
Modified |
1949-Jan-28 15:16 |
2_18:26 |
Earth |
0.0667038988410279 |
0.053324564869445 |
0.0803321615019213 |
14.5264836591492 |
14.5237336018134 |
2432945.136424886 |
3985.96182981503 |
703402.809990278 |
210.913984869659 |
16.4548297587324 |
12803.4487748756 |
T |
4 |
CATAB v2.0f-lin.ifort 2020-Feb-13 05:13:13 |
2020-Feb-13 05:13 |
2020-Jan-22 22:53 |
00:02 |
Moon |
0.0037214674184083 |
0.00369588878863656 |
0.00374705839678756 |
13.1286446226187 |
13.1279738184502 |
2458871.453484382 |
1.71541985823794 |
1319.83813440021 |
4.69891009169074 |
14.8552055416325 |
30118.9432952298 |
T |
4 |
CATAB v2.0f-lin.ifort 2020-Feb-13 05:13:13 |
2020-Feb-13 05:13 |
2020-Jan-23 05:39 |
< 00:01 |
Earth |
0.00517495609107067 |
0.00514899407522788 |
0.00520091638739657 |
12.3818264909416 |
12.3401729341937 |
2458871.735515005 |
0.643999281122583 |
1285.97406650807 |
3.82492289975477 |
0.111418823676797 |
412.541375429086 |
T |
4 |
CATAB v2.0f-lin.ifort 2020-Feb-13 05:13:13 |
2020-Feb-13 05:13 |
|
|